Regional Weather Roundup
Issued by NWS

Home | Current Version | Previous Version | Text Only | Print | Product List | Glossary On
Versions: 1 2 3 4 5 6 7 8 9 10 11 12 13 14 15 16 17 18 19 20 21 22 23 24 25 26 27 28 29 30 31 32 33 34 35 36 37 38 39 40 41 42 43 44 45 46 47 48 49 50
000
ASUS44 KLUB 031910
RWRTX
WEST TEXAS WEATHER ROUNDUP
NATIONAL WEATHER SERVICE LUBBOCK TX
100 PM CST TUE MAR 03 2015

NOTE: "FAIR" INDICATES FEW OR NO CLOUDS BELOW 12,000 FEET WITH NO
SIGNIFICANT WEATHER AND/OR OBSTRUCTIONS TO VISIBILITY.

TXZ004-006>008-010-012-014-016-OKZ002-032000-
TEXAS PANHANDLE/OKLAHOMA PANHANDLE

CITY           SKY/WX    TMP DP  RH WIND       PRES   REMARKS
CANADIAN       CLOUDY    56  38  52 SW7       29.83R
DUMAS          CLOUDY    52  38  58 W9        29.83R
GUYMON         CLOUDY    45  34  65 NE21G30   29.83R
HEREFORD       CLOUDY    57  36  45 NW13      29.84F
PAMPA          CLOUDY    51  37  57 S6        29.85R
PERRYTON         N/A     48  40  73 W9        29.81R
$$

TXZ026-029-035-045-048-032000-
SOUTHERN PANHANDLE/SOUTH PLAINS/ROLLING PLAINS

CITY           SKY/WX    TMP DP  RH WIND       PRES   REMARKS
SEMINOLE       CLOUDY    51  44  75 NE5       29.89F
PLAINVIEW      CLOUDY    52  40  64 W7        29.85F
SNYDER         CLOUDY    47  46  96 CALM      29.88F FOG
$$

TXZ052-054-060>062-072-078-127-140-154-169-032000-
PERMIAN BASIN/CONCHO VALLEY/BIG COUNTRY/EDWARDS PLATEAU

CITY           SKY/WX    TMP DP  RH WIND       PRES   REMARKS
BIG SPRING     CLOUDY   N/A N/A N/A CALM      29.90F
BRADY          CLOUDY    61  57  88 S10       29.86F
BROWNWOOD      PTSUNNY   50  50 100 S7        29.89F
SONORA         CLOUDY    55  50  82 S12       29.93F
SWEETWATER     CLOUDY    53  48  85 SW12      29.90F
$$

TXZ055-058-074-075-080-082-032000-
FAR WEST/SOUTHWEST MOUNTAINS/TRANS PECOS

CITY           SKY/WX    TMP DP  RH WIND       PRES   REMARKS
ALPINE         PTSUNNY   70  36  28 SW21G35   29.96F
MARFA          PTSUNNY   72  37  28 S23G31    29.93F
PECOS          PTSUNNY   52  44  72 CALM      29.85F
PRESIDIO       FAIR      70  40  33 N6        29.85F
$$

TXZ014-016-019-021>030-083-032000
TEXAS TECH WEST TEXAS MESONET/TEXAS PANHANDLE/NORTHERN SOUTH PLAINS

CITY           SKY/WX    TMP DP  RH WIND       PRES   REMARKS
ABERNATHY 5ENE   N/A     53  42  64 NW7       29.88F
AMARILLO 9NNE    N/A     58  29  32 W15       29.82F
AMARILLO 7SSE    N/A     58  33  38 NW12      29.83F
AMHERST 1NE      N/A     48  42  80 S2        29.87F
BOOTLEG 11WNW    N/A     47  36  65 W10       29.88S
CANADIAN 6E      N/A     55  38  53 W6        29.81R
CAPROCK CYN SP   N/A     57  39  51 W1        29.85F
CHILDRESS 2NNE   N/A     60  40  47 SW6       29.84F
CLARENDON 2WSW   N/A     53  38  57 S6        29.84F
CLAUDE 12SW      N/A     52  37  56 S5        29.84F
DIMMITT 2NE      N/A     49  42  78 SW9       29.86F
FLOYDADA 2NNE    N/A     54  43  65 W5        29.85F
FRIONA 2NE       N/A     51  37  57 W8        29.86F
GOODLETT 3W      N/A     61  42  50 SW6       29.84F
HART 3N          N/A     48  40  74 W8        29.86F
HEREFORD 2NW     N/A     54  35  49 W12       29.83F
MCLEAN 1E        N/A     55  37  50 SW5       29.83S
MEMPHIS 1NE      N/A     53  40  62 W5        29.85F
MULESHOE 2SSW    N/A     51  41  69 W7        29.86F
OLTON 6S         N/A     48  40  75 SW8       29.87F
PALO DURO SP     N/A     56  37  50 S2        29.85F
PAMPA 2E         N/A     51  38  61 S5        29.83F
PLAINVIEW 1S     N/A     52  40  64 W7        29.86F
SILVERTON 7ESE   N/A     56  38  50 W7        29.85F
TULIA 2ENE       N/A     49  40  69 SW9       29.86S
TURKEY 2WSW      N/A     57  42  55 SW6       29.84F
UMBARGER 3NNE    N/A     55  34  46 W15       29.83F
$$

TXZ033>036-039>041-045>048-032000
TEXAS TECH WEST TEXAS MESONET/SOUTH PLAINS

CITY           SKY/WX    TMP DP  RH WIND       PRES   REMARKS
AIKEN 3WSW       N/A     53  40  61 W7        29.87F
ANDREWS 2NE      N/A     50  44  79 N5        29.87F
ANTON 6SSW       N/A     53  43  70 NW3       29.86F
BROWNFIELD 2S    N/A     54  43  66 N7        29.87F
DENVR CTY 7WNW   N/A     55  39  56 N7        29.86F
GAIL 2ESE        N/A     52  47  82 W3        29.87F
LAMESA 2SE       N/A     46  46  99 NW5       29.88F
LEVELLAND 4S     N/A     53  42  64 CALM      29.87F
LUBBOCK 3WNW     N/A     53  43  67 W5        29.87F
MORTON 1ENE      N/A     53  40  62 W8        29.86F
ODONNELL 1N      N/A     50  44  81 W3        29.88S
PLAINS 3N        N/A     52  40  63 NE1       29.88F
RALLS 1SE        N/A     54  45  70 W5        29.87F
REESE CENTER     N/A     54  42  63 NW5       29.87F
SEAGRAVES 1SW    N/A     55  45  69 N2        29.87F
SEMINOLE 2NNE    N/A     53  42  64 NW7       29.87F
SLATON 2NE       N/A     54  44  68 NW5       29.87F
SNYDER 3E        N/A     46  46  99 W2        29.87F
SUNDOWN 8SW      N/A     54  38  54 NW5       29.88F
TAHOKA 3NNE      N/A     57  45  64 NW7       29.86F
WOLFFORTH 6SSW   N/A     53  49  87 W3        29.88F
$$

TXZ031-032-036>038-042>044-032000-
TEXAS TECH WEST TEXAS MESONET/ROLLING PLAINS

CITY           SKY/WX    TMP DP  RH WIND       PRES   REMARKS
ASPERMONT 3NE    N/A     54  47  76 SW5       29.87F
FLUVANNA 3WNW    N/A     51  48  87 W5        29.87F
GRAHAM 5SSW      N/A     49  44  83 W3        29.87F
GUTHRIE 10WSW    N/A     64  43  46 SW5       29.83F
HASKELL 1NW      N/A     53  47  79 W7        29.88F
JAYTON 1SSE      N/A     54  45  71 SW5       29.87F
KNOX CITY 3NW    N/A     57  46  66 SW9       29.87F
LK A HENRY 1NW   N/A     56  45  66 SW6       29.85F
NORTHFIELD 1S    N/A     61  41  48 NW5       29.84F
ODELL 4ENE       N/A     57  47  67 SW7       29.86F
PADUCAH 10SW     N/A     65  41  42 N1        29.83F
POST 1NE         N/A     54  44  68 SW6       29.87F
RRING SPRGS 3N   N/A     60  42  51 W9        29.85F
SEYMOUR 3NW      N/A     53  46  76 S9        29.88F
SPUR 1W          N/A     60  43  53 W5        29.84F
WEINERT 2NNE     N/A     54  47  77 SW8       29.88F
WHITE RVR 6NE    N/A     58  42  54 NW2       29.85F
$$

TXZ052-054-060>062-072-078-127-140-154-169-032000-
TEXAS TECH WEST TEXAS MESONET/PERMIAN BASIN/
CONCHO VALLEY/BIG COUNTRY/EDWARDS PLATEAU

CITY           SKY/WX    TMP DP  RH WIND       PRES   REMARKS
COYANOSA 2N      N/A     56  42  60 E1        29.85F
JUNCTION 1SSW    N/A     65  56  73 S12       29.87F
MERTZON 3NNE     N/A     57  50  77 S10       29.89F
SAN ANGELO 7NW   N/A     59  50  71 S10       29.88F
STRLNG CT 4WSW   N/A     59  50  71 S7        29.86F
ST LAWRNCE 5SW   N/A     63  49  60 S9        29.85F
SWEETWATR 11SW   N/A     53  47  81 SW7       29.87F
WALL 1E          N/A     59  50  72 SW12      29.88F
$$

TXZ055-058-074-075-080-082-032000-
TEXAS TECH WEST TEXAS MESONET/FAR WEST/SOUTHWEST MOUNTAINS/TRANS PECOS

CITY           SKY/WX    TMP DP  RH WIND       PRES   REMARKS
$$


USA.gov is the U.S. government's official web portal to all federal, state and local government web resources and services.